Time,TemperatureF,DewpointF,PressureIn,WindDirection,WindDirectionDegrees,WindSpeedMPH,WindSpeedGustMPH,Humidity,HourlyPrecipIn,Conditions,Clouds,dailyrainin,SoftwareType,DateUTC
2013-01-08 00:04:00,44.6,43.5,30.10,West,270,2.0,3.0,96,0.00,,,0.14,meteohub,2013-01-08 08:04:00,
2013-01-08 00:09:00,43.9,42.8,30.11,SW,225,2.0,3.0,96,0.00,,,0.00,meteohub,2013-01-08 08:09:00,
2013-01-08 00:14:00,44.6,43.5,30.10,West,270,2.0,3.0,96,0.00,,,0.00,meteohub,2013-01-08 08:14:00,
2013-01-08 00:19:00,44.1,43.0,30.11,SSW,203,2.0,2.0,96,0.00,,,0.00,meteohub,2013-01-08 08:19:00,
2013-01-08 00:24:00,44.4,43.3,30.11,West,270,1.0,2.0,96,0.00,,,0.00,meteohub,2013-01-08 08:24:00,
2013-01-08 00:29:00,44.2,43.2,30.11,West,270,2.0,2.0,96,0.00,,,0.00,meteohub,2013-01-08 08:29:00,
2013-01-08 00:34:00,46.9,45.9,30.10,West,270,2.0,2.0,96,0.00,,,0.00,meteohub,2013-01-08 08:34:00,
2013-01-08 00:39:00,47.1,46.0,30.10,West,270,1.0,2.0,96,0.00,,,0.00,meteohub,2013-01-08 08:39:00,
2013-01-08 00:44:00,44.4,43.3,30.10,West,270,2.0,2.0,96,0.00,,,0.00,meteohub,2013-01-08 08:44:00,
2013-01-08 00:49:00,44.4,43.3,30.10,West,270,2.0,3.0,96,0.00,,,0.00,meteohub,2013-01-08 08:49:00,
2013-01-08 00:54:00,44.4,43.7,30.10,West,270,0.0,3.0,97,0.00,,,0.00,meteohub,2013-01-08 08:54:00,
2013-01-08 00:59:00,44.1,43.3,30.10,West,270,1.0,3.0,97,0.00,,,0.00,meteohub,2013-01-08 08:59:00,
2013-01-08 01:04:00,44.8,44.1,30.10,SW,225,2.0,2.0,97,0.00,,,0.00,meteohub,2013-01-08 09:04:00,
2013-01-08 01:09:00,44.1,43.3,30.10,West,270,2.0,2.0,97,0.00,,,0.00,meteohub,2013-01-08 09:09:00,
2013-01-08 01:15:00,44.4,43.7,30.09,West,270,2.0,3.0,97,0.00,,,0.00,meteohub,2013-01-08 09:15:00,
2013-01-08 01:20:00,44.1,43.3,30.10,SW,225,0.0,3.0,97,0.00,,,0.00,meteohub,2013-01-08 09:20:00,
2013-01-08 01:25:00,49.6,48.7,30.10,South,180,2.0,8.0,97,0.00,,,0.00,meteohub,2013-01-08 09:25:00,
2013-01-08 01:30:00,43.7,43.2,30.10,WSW,248,1.0,8.0,98,0.00,,,0.00,meteohub,2013-01-08 09:30:00,
2013-01-08 01:35:00,48.9,48.4,30.10,SW,225,1.0,8.0,98,0.00,,,0.00,meteohub,2013-01-08 09:35:00,
2013-01-08 01:40:00,43.3,42.8,30.10,SW,225,1.0,2.0,98,0.00,,,0.00,meteohub,2013-01-08 09:40:00,
2013-01-08 01:45:00,43.0,42.8,30.10,East,90,1.0,2.0,99,0.00,,,0.00,meteohub,2013-01-08 09:45:00,
2013-01-08 01:50:00,43.5,43.3,30.09,South,180,5.0,5.0,99,0.00,,,0.00,meteohub,2013-01-08 09:50:00,
2013-01-08 01:55:00,43.9,43.7,30.09,SW,225,2.0,2.0,99,0.00,,,0.00,meteohub,2013-01-08 09:55:00,
2013-01-08 02:00:00,43.9,43.7,30.09,North,0,0.0,5.0,99,0.00,,,0.00,meteohub,2013-01-08 10:00:00,
2013-01-08 02:05:00,43.7,43.5,30.09,WSW,248,5.0,5.0,99,0.00,,,0.00,meteohub,2013-01-08 10:05:00,
2013-01-08 02:10:00,43.9,43.7,30.08,SW,225,1.0,5.0,99,0.00,,,0.00,meteohub,2013-01-08 10:10:00,
2013-01-08 02:15:00,43.7,43.5,30.09,South,180,1.0,5.0,99,0.00,,,0.00,meteohub,2013-01-08 10:15:00,
2013-01-08 02:20:00,44.1,43.9,30.09,North,0,0.0,5.0,99,0.00,,,0.00,meteohub,2013-01-08 10:20:00,
2013-01-08 02:25:00,44.6,44.4,30.09,West,270,1.0,4.0,99,0.00,,,0.00,meteohub,2013-01-08 10:25:00,
2013-01-08 02:30:00,53.1,52.7,30.09,SSE,158,4.0,4.0,99,0.00,,,0.00,meteohub,2013-01-08 10:30:00,
2013-01-08 02:35:00,44.4,44.2,30.09,North,0,1.0,4.0,99,0.00,,,0.00,meteohub,2013-01-08 10:35:00,
2013-01-08 02:40:00,43.5,43.3,30.09,NE,45,1.0,4.0,99,0.00,,,0.00,meteohub,2013-01-08 10:40:00,
2013-01-08 02:45:00,43.3,43.2,30.09,South,180,0.0,4.0,99,0.00,,,0.00,meteohub,2013-01-08 10:45:00,
2013-01-08 02:50:00,43.2,43.0,30.09,South,180,0.0,2.0,99,0.00,,,0.00,meteohub,2013-01-08 10:50:00,
2013-01-08 02:55:00,43.5,43.3,30.09,West,270,0.0,2.0,99,0.00,,,0.00,meteohub,2013-01-08 10:55:00,
2013-01-08 03:00:00,43.2,43.0,30.09,North,0,1.0,1.0,99,0.00,,,0.00,meteohub,2013-01-08 11:00:00,
2013-01-08 03:05:00,43.9,43.7,30.09,North,0,1.0,1.0,99,0.00,,,0.00,meteohub,2013-01-08 11:05:00,
2013-01-08 03:10:00,48.4,48.2,30.09,South,180,2.0,2.0,99,0.00,,,0.00,meteohub,2013-01-08 11:10:00,
2013-01-08 03:15:00,48.4,48.2,30.10,SW,225,1.0,2.0,99,0.00,,,0.00,meteohub,2013-01-08 11:15:00,
2013-01-08 03:20:00,44.6,44.4,30.09,SW,225,1.0,2.0,99,0.00,,,0.00,meteohub,2013-01-08 11:20:00,
2013-01-08 03:25:00,43.0,42.8,30.09,WSW,248,2.0,2.0,99,0.00,,,0.00,meteohub,2013-01-08 11:25:00,
2013-01-08 03:30:00,43.2,43.0,30.09,SW,225,0.0,4.0,99,0.00,,,0.00,meteohub,2013-01-08 11:30:00,
2013-01-08 03:35:00,43.5,43.3,30.08,West,270,1.0,4.0,99,0.00,,,0.00,meteohub,2013-01-08 11:35:00,
2013-01-08 03:40:00,43.2,43.0,30.08,SW,225,1.0,4.0,99,0.00,,,0.00,meteohub,2013-01-08 11:40:00,
2013-01-08 03:45:00,43.3,43.2,30.08,West,270,1.0,3.0,99,0.00,,,0.00,meteohub,2013-01-08 11:45:00,
2013-01-08 03:50:00,42.8,42.6,30.07,South,180,1.0,3.0,99,0.00,,,0.00,meteohub,2013-01-08 11:50:00,
2013-01-08 03:55:00,43.5,43.3,30.07,West,270,0.0,3.0,99,0.00,,,0.00,meteohub,2013-01-08 11:55:00,
2013-01-08 04:00:00,43.2,43.0,30.07,North,0,1.0,3.0,99,0.00,,,0.00,meteohub,2013-01-08 12:00:00,
2013-01-08 04:05:00,43.5,43.3,30.07,West,270,0.0,3.0,99,0.00,,,0.00,meteohub,2013-01-08 12:05:00,
2013-01-08 04:10:00,43.5,43.3,30.07,West,270,2.0,2.0,99,0.00,,,0.00,meteohub,2013-01-08 12:10:00,
2013-01-08 04:15:00,48.4,48.2,30.08,SW,225,0.0,3.0,99,0.00,,,0.00,meteohub,2013-01-08 12:15:00,
2013-01-08 04:20:00,42.8,42.6,30.07,South,180,1.0,3.0,99,0.00,,,0.00,meteohub,2013-01-08 12:20:00,
2013-01-08 04:25:00,43.2,43.0,30.07,West,270,2.0,2.0,99,0.00,,,0.00,meteohub,2013-01-08 12:25:00,
2013-01-08 04:30:00,43.3,43.2,30.07,WSW,248,4.0,4.0,99,0.00,,,0.00,meteohub,2013-01-08 12:30:00,
2013-01-08 04:35:00,43.5,43.3,30.06,SW,225,4.0,4.0,99,0.00,,,0.00,meteohub,2013-01-08 12:35:00,
2013-01-08 04:40:00,44.2,44.1,30.06,SW,225,0.0,4.0,99,0.00,,,0.00,meteohub,2013-01-08 12:40:00,
2013-01-08 04:45:00,43.2,43.0,30.06,SW,225,2.0,4.0,99,0.00,,,0.00,meteohub,2013-01-08 12:45:00,
2013-01-08 04:50:00,47.8,47.7,30.06,North,0,1.0,4.0,99,0.00,,,0.00,meteohub,2013-01-08 12:50:00,
2013-01-08 04:55:00,43.3,43.2,30.06,North,0,0.0,2.0,99,0.00,,,0.00,meteohub,2013-01-08 12:55:00,
2013-01-08 05:00:00,49.1,48.9,30.06,East,90,1.0,2.0,99,0.00,,,0.00,meteohub,2013-01-08 13:00:00,
2013-01-08 05:05:00,43.9,43.7,30.06,SW,225,1.0,2.0,99,0.00,,,0.00,meteohub,2013-01-08 13:05:00,
2013-01-08 05:10:00,43.2,43.0,30.06,SW,225,3.0,4.0,99,0.00,,,0.00,meteohub,2013-01-08 13:10:00,
2013-01-08 05:15:00,43.3,43.2,30.06,SW,225,1.0,4.0,99,0.00,,,0.00,meteohub,2013-01-08 13:15:00,
2013-01-08 05:20:00,43.2,43.0,30.05,SE,135,2.0,4.0,99,0.00,,,0.00,meteohub,2013-01-08 13:20:00,
2013-01-08 05:25:00,43.3,43.2,30.05,South,180,2.0,4.0,99,0.00,,,0.00,meteohub,2013-01-08 13:25:00,
2013-01-08 05:30:00,45.9,45.7,30.05,SE,135,4.0,4.0,99,0.00,,,0.00,meteohub,2013-01-08 13:30:00,
2013-01-08 05:35:00,43.7,43.5,30.05,West,270,2.0,4.0,99,0.00,,,0.00,meteohub,2013-01-08 13:35:00,
2013-01-08 05:40:00,43.7,43.5,30.05,West,270,1.0,4.0,99,0.00,,,0.00,meteohub,2013-01-08 13:40:00,
2013-01-08 05:46:00,43.3,43.2,30.05,North,0,0.0,4.0,99,0.00,,,0.00,meteohub,2013-01-08 13:46:00,
2013-01-08 05:51:00,43.5,43.3,30.05,West,270,2.0,2.0,99,0.00,,,0.00,meteohub,2013-01-08 13:51:00,
2013-01-08 05:56:00,46.2,46.0,30.05,West,270,1.0,2.0,99,0.00,,,0.00,meteohub,2013-01-08 13:56:00,
2013-01-08 06:01:00,48.2,48.0,30.05,South,180,1.0,2.0,99,0.00,,,0.00,meteohub,2013-01-08 14:01:00,
2013-01-08 06:06:00,43.0,42.8,30.05,SW,225,2.0,2.0,99,0.00,,,0.00,meteohub,2013-01-08 14:06:00,
2013-01-08 06:12:00,43.0,42.8,30.05,SW,225,1.0,3.0,99,0.00,,,0.00,meteohub,2013-01-08 14:12:00,
2013-01-08 06:17:00,43.3,43.2,30.05,West,270,2.0,4.0,99,0.00,,,0.00,meteohub,2013-01-08 14:17:00,
2013-01-08 06:22:00,43.0,42.8,30.04,SW,225,1.0,4.0,99,0.00,,,0.00,meteohub,2013-01-08 14:22:00,
2013-01-08 06:27:00,44.1,43.9,30.03,SW,225,2.0,4.0,99,0.00,,,0.00,meteohub,2013-01-08 14:27:00,
2013-01-08 06:32:00,42.8,42.6,30.03,West,270,2.0,4.0,99,0.00,,,0.00,meteohub,2013-01-08 14:32:00,
2013-01-08 06:37:00,42.4,42.3,30.03,West,270,1.0,3.0,99,0.00,,,0.00,meteohub,2013-01-08 14:37:00,
2013-01-08 06:42:00,41.9,41.7,30.02,SW,225,3.0,4.0,99,0.00,,,0.00,meteohub,2013-01-08 14:42:00,
2013-01-08 06:47:00,46.0,45.9,30.01,SW,225,2.0,4.0,99,0.00,,,0.00,meteohub,2013-01-08 14:47:00,
2013-01-08 06:52:00,46.2,46.0,30.02,South,180,2.0,4.0,99,0.01,,,0.01,meteohub,2013-01-08 14:52:00,
2013-01-08 06:57:00,39.0,38.8,30.01,SW,225,2.0,4.0,99,0.01,,,0.01,meteohub,2013-01-08 14:57:00,
2013-01-08 07:02:00,41.5,41.4,30.00,West,270,1.0,2.0,99,0.01,,,0.01,meteohub,2013-01-08 15:02:00,
2013-01-08 07:07:00,40.8,40.6,30.00,SSW,203,1.0,2.0,99,0.01,,,0.01,meteohub,2013-01-08 15:07:00,
2013-01-08 07:12:00,40.8,40.6,30.00,SW,225,2.0,2.0,99,0.01,,,0.01,meteohub,2013-01-08 15:12:00,
2013-01-08 07:17:00,41.4,41.2,30.00,SW,225,0.0,2.0,99,0.01,,,0.01,meteohub,2013-01-08 15:17:00,
2013-01-08 07:23:00,41.2,41.0,30.01,North,-999,-999.0,2.0,99,0.01,,,0.01,meteohub,2013-01-08 15:23:00,
2013-01-08 07:28:00,41.0,40.8,30.01,North,-999,-999.0,2.0,99,0.02,,,0.02,meteohub,2013-01-08 15:28:00,
2013-01-08 07:33:00,39.6,39.4,30.01,WSW,248,1.0,0.0,99,0.02,,,0.02,meteohub,2013-01-08 15:33:00,
2013-01-08 07:38:00,39.9,39.7,30.00,North,0,0.0,1.0,99,0.04,,,0.04,meteohub,2013-01-08 15:38:00,
2013-01-08 07:43:00,39.9,39.7,30.00,North,0,0.0,1.0,99,0.04,,,0.04,meteohub,2013-01-08 15:43:00,
2013-01-08 07:48:00,40.8,40.6,30.00,ENE,68,1.0,1.0,99,0.04,,,0.04,meteohub,2013-01-08 15:48:00,
2013-01-08 07:53:00,40.8,40.6,29.99,West,270,1.0,2.0,99,0.04,,,0.05,meteohub,2013-01-08 15:53:00,
2013-01-08 07:58:00,39.2,39.0,29.99,South,180,1.0,2.0,99,0.04,,,0.05,meteohub,2013-01-08 15:58:00,
2013-01-08 08:03:00,39.4,39.2,29.99,South,180,0.0,2.0,99,0.05,,,0.06,meteohub,2013-01-08 16:03:00,
2013-01-08 08:08:00,39.9,39.7,29.98,West,270,1.0,1.0,99,0.05,,,0.06,meteohub,2013-01-08 16:08:00,
2013-01-08 08:13:00,39.4,39.2,29.99,SW,225,1.0,1.0,99,0.05,,,0.06,meteohub,2013-01-08 16:13:00,
2013-01-08 08:18:00,39.6,39.4,29.99,SW,225,0.0,2.0,99,0.05,,,0.06,meteohub,2013-01-08 16:18:00,
2013-01-08 08:23:00,39.9,39.7,29.98,West,270,2.0,3.0,99,0.06,,,0.07,meteohub,2013-01-08 16:23:00,
2013-01-08 08:28:00,39.4,39.2,29.99,SW,225,1.0,3.0,99,0.05,,,0.07,meteohub,2013-01-08 16:28:00,
2013-01-08 08:33:00,39.7,39.6,29.99,West,270,1.0,3.0,99,0.05,,,0.07,meteohub,2013-01-08 16:33:00,
2013-01-08 08:38:00,39.2,39.0,29.99,South,180,2.0,2.0,99,0.04,,,0.07,meteohub,2013-01-08 16:38:00,
2013-01-08 08:43:00,39.7,39.6,29.99,West,270,0.0,2.0,99,0.05,,,0.08,meteohub,2013-01-08 16:43:00,
2013-01-08 08:48:00,45.5,45.3,29.98,South,180,1.0,2.0,99,0.04,,,0.08,meteohub,2013-01-08 16:48:00,
2013-01-08 08:53:00,44.8,44.6,29.99,SW,225,2.0,2.0,99,0.04,,,0.08,meteohub,2013-01-08 16:53:00,
2013-01-08 08:58:00,39.0,38.8,29.98,SW,225,1.0,2.0,99,0.04,,,0.08,meteohub,2013-01-08 16:58:00,
2013-01-08 09:03:00,39.4,39.2,29.98,SW,225,0.0,2.0,99,0.02,,,0.08,meteohub,2013-01-08 17:03:00,
2013-01-08 09:08:00,39.2,39.0,29.98,SE,135,1.0,2.0,99,0.02,,,0.08,meteohub,2013-01-08 17:08:00,
2013-01-08 09:13:00,39.7,39.6,29.98,West,270,1.0,2.0,99,0.04,,,0.09,meteohub,2013-01-08 17:13:00,
2013-01-08 09:18:00,39.4,39.2,29.97,SW,225,0.0,2.0,99,0.02,,,0.09,meteohub,2013-01-08 17:18:00,
2013-01-08 09:23:00,39.7,39.6,29.97,West,270,1.0,2.0,99,0.04,,,0.11,meteohub,2013-01-08 17:23:00,
2013-01-08 09:28:00,39.4,39.2,29.96,SW,225,2.0,2.0,99,0.04,,,0.11,meteohub,2013-01-08 17:28:00,
2013-01-08 09:33:00,39.2,39.0,29.96,South,180,1.0,2.0,99,0.04,,,0.11,meteohub,2013-01-08 17:33:00,
2013-01-08 09:38:00,39.4,39.2,29.96,SW,225,2.0,3.0,99,0.05,,,0.12,meteohub,2013-01-08 17:38:00,
2013-01-08 09:43:00,40.5,40.3,29.95,SE,135,2.0,3.0,99,0.04,,,0.12,meteohub,2013-01-08 17:43:00,
2013-01-08 09:48:00,39.9,39.7,29.94,West,270,2.0,2.0,99,0.04,,,0.12,meteohub,2013-01-08 17:48:00,
2013-01-08 09:53:00,39.6,39.4,29.95,WSW,248,1.0,3.0,99,0.04,,,0.12,meteohub,2013-01-08 17:53:00,
2013-01-08 09:58:00,39.9,39.7,29.95,West,270,1.0,3.0,99,0.04,,,0.12,meteohub,2013-01-08 17:58:00,
2013-01-08 10:03:00,39.4,39.2,29.94,East,90,1.0,4.0,99,0.04,,,0.12,meteohub,2013-01-08 18:03:00,
2013-01-08 10:08:00,39.7,39.6,29.93,SW,225,2.0,4.0,99,0.04,,,0.13,meteohub,2013-01-08 18:08:00,
2013-01-08 10:14:00,40.3,40.1,29.93,West,270,2.0,4.0,99,0.04,,,0.13,meteohub,2013-01-08 18:14:00,
2013-01-08 10:18:00,45.0,44.8,29.93,SW,225,2.0,2.0,99,0.04,,,0.13,meteohub,2013-01-08 18:18:00,
2013-01-08 10:24:00,39.7,39.6,29.93,SW,225,2.0,2.0,99,0.02,,,0.13,meteohub,2013-01-08 18:24:00,
2013-01-08 10:29:00,40.1,39.9,29.92,North,0,0.0,3.0,99,0.02,,,0.13,meteohub,2013-01-08 18:29:00,
2013-01-08 10:34:00,39.6,39.4,29.92,East,90,2.0,3.0,99,0.02,,,0.13,meteohub,2013-01-08 18:34:00,
2013-01-08 10:39:00,39.7,39.6,29.91,South,180,2.0,3.0,99,0.01,,,0.13,meteohub,2013-01-08 18:39:00,
2013-01-08 10:44:00,39.9,39.7,29.91,SW,225,2.0,3.0,99,0.01,,,0.13,meteohub,2013-01-08 18:44:00,
2013-01-08 10:49:00,38.7,38.5,29.90,SW,225,4.0,4.0,99,0.01,,,0.13,meteohub,2013-01-08 18:49:00,
2013-01-08 10:54:00,39.9,39.7,29.89,ENE,68,2.0,4.0,99,0.01,,,0.13,meteohub,2013-01-08 18:54:00,
2013-01-08 10:59:00,40.1,39.9,29.89,SW,225,2.0,4.0,99,0.01,,,0.13,meteohub,2013-01-08 18:59:00,
2013-01-08 11:04:00,40.5,40.3,29.90,West,270,4.0,4.0,99,0.01,,,0.13,meteohub,2013-01-08 19:04:00,
2013-01-08 11:09:00,43.0,42.8,29.89,West,270,3.0,4.0,99,0.00,,,0.13,meteohub,2013-01-08 19:09:00,
2013-01-08 11:14:00,40.3,40.1,29.89,SW,225,2.0,4.0,99,0.00,,,0.13,meteohub,2013-01-08 19:14:00,
2013-01-08 11:19:00,45.7,45.5,29.88,SSW,203,2.0,4.0,99,0.00,,,0.13,meteohub,2013-01-08 19:19:00,
2013-01-08 11:24:00,40.3,40.1,29.88,SW,225,1.0,3.0,99,0.00,,,0.13,meteohub,2013-01-08 19:24:00,
2013-01-08 11:29:00,40.3,40.1,29.88,SW,225,1.0,2.0,99,0.00,,,0.13,meteohub,2013-01-08 19:29:00,
2013-01-08 11:34:00,41.4,41.2,29.88,SW,225,1.0,2.0,99,0.00,,,0.13,meteohub,2013-01-08 19:34:00,
2013-01-08 11:39:00,40.6,40.5,29.88,SW,225,2.0,2.0,99,0.00,,,0.13,meteohub,2013-01-08 19:39:00,
2013-01-08 11:44:00,45.7,45.5,29.88,SW,225,1.0,2.0,99,0.00,,,0.13,meteohub,2013-01-08 19:44:00,
2013-01-08 11:49:00,46.0,45.9,29.87,SW,225,1.0,7.0,99,0.00,,,0.13,meteohub,2013-01-08 19:49:00,
2013-01-08 11:54:00,41.0,40.8,29.87,SW,225,2.0,7.0,99,0.01,,,0.14,meteohub,2013-01-08 19:54:00,
2013-01-08 11:59:00,41.2,41.0,29.86,SW,225,0.0,7.0,99,0.01,,,0.14,meteohub,2013-01-08 19:59:00,
2013-01-08 12:04:00,41.4,41.2,29.86,West,270,1.0,4.0,99,0.01,,,0.14,meteohub,2013-01-08 20:04:00,
2013-01-08 12:09:00,42.6,42.4,29.86,SW,225,1.0,4.0,99,0.01,,,0.14,meteohub,2013-01-08 20:09:00,
2013-01-08 12:14:00,41.4,41.2,29.86,WSW,248,2.0,2.0,99,0.02,,,0.15,meteohub,2013-01-08 20:14:00,
2013-01-08 12:19:00,47.5,47.3,29.86,SW,225,2.0,3.0,99,0.02,,,0.15,meteohub,2013-01-08 20:19:00,
2013-01-08 12:24:00,41.9,41.7,29.85,SW,225,3.0,3.0,99,0.02,,,0.15,meteohub,2013-01-08 20:24:00,
2013-01-08 12:29:00,42.1,41.9,29.84,SW,225,2.0,3.0,99,0.02,,,0.15,meteohub,2013-01-08 20:29:00,
2013-01-08 12:34:00,42.4,42.3,29.85,SW,225,2.0,4.0,99,0.02,,,0.15,meteohub,2013-01-08 20:34:00,
2013-01-08 12:39:00,42.3,42.1,29.84,SW,225,1.0,4.0,99,0.02,,,0.15,meteohub,2013-01-08 20:39:00,
2013-01-08 12:44:00,47.8,47.7,29.84,South,180,1.0,6.0,99,0.02,,,0.15,meteohub,2013-01-08 20:44:00,
2013-01-08 12:49:00,43.0,42.8,29.84,West,270,2.0,6.0,99,0.02,,,0.15,meteohub,2013-01-08 20:49:00,
2013-01-08 12:54:00,42.8,42.6,29.83,East,90,2.0,3.0,99,0.01,,,0.15,meteohub,2013-01-08 20:54:00,
2013-01-08 12:59:00,43.2,43.0,29.83,SW,225,7.0,7.0,99,0.01,,,0.15,meteohub,2013-01-08 20:59:00,
2013-01-08 13:04:00,47.1,46.9,29.82,SW,225,4.0,7.0,99,0.01,,,0.15,meteohub,2013-01-08 21:04:00,
2013-01-08 13:09:00,43.5,43.3,29.83,SW,225,3.0,7.0,99,0.01,,,0.17,meteohub,2013-01-08 21:09:00,
2013-01-08 13:14:00,44.1,43.9,29.82,West,270,2.0,7.0,99,0.01,,,0.17,meteohub,2013-01-08 21:14:00,
2013-01-08 13:19:00,48.7,48.6,29.81,SW,225,6.0,6.0,99,0.01,,,0.17,meteohub,2013-01-08 21:19:00,
2013-01-08 13:24:00,45.0,44.8,29.81,South,180,3.0,4.0,99,0.01,,,0.17,meteohub,2013-01-08 21:24:00,
2013-01-08 13:29:00,44.4,44.2,29.80,West,270,8.0,8.0,99,0.01,,,0.17,meteohub,2013-01-08 21:29:00,
2013-01-08 13:34:00,47.3,47.1,29.81,West,270,10.0,11.0,99,0.01,,,0.17,meteohub,2013-01-08 21:34:00,
2013-01-08 13:39:00,46.4,46.2,29.81,SW,225,7.0,11.0,99,0.01,,,0.17,meteohub,2013-01-08 21:39:00,
2013-01-08 13:45:00,46.4,46.2,29.80,SSW,203,7.0,11.0,99,0.02,,,0.18,meteohub,2013-01-08 21:45:00,
2013-01-08 13:50:00,43.2,43.0,29.80,SE,135,9.0,11.0,99,0.02,,,0.18,meteohub,2013-01-08 21:50:00,
2013-01-08 13:55:00,52.3,52.0,29.80,South,180,8.0,11.0,99,0.02,,,0.18,meteohub,2013-01-08 21:55:00,
2013-01-08 14:00:00,48.0,47.8,29.80,SE,135,5.0,9.0,99,0.02,,,0.18,meteohub,2013-01-08 22:00:00,
2013-01-08 14:05:00,47.3,47.1,29.80,West,270,7.0,9.0,99,0.02,,,0.18,meteohub,2013-01-08 22:05:00,
2013-01-08 14:10:00,50.9,50.5,29.80,South,180,4.0,9.0,99,0.01,,,0.18,meteohub,2013-01-08 22:10:00,
2013-01-08 14:15:00,47.1,46.9,29.80,SW,225,3.0,9.0,99,0.01,,,0.18,meteohub,2013-01-08 22:15:00,
2013-01-08 14:20:00,47.3,47.1,29.80,SW,225,4.0,8.0,99,0.01,,,0.18,meteohub,2013-01-08 22:20:00,
2013-01-08 14:25:00,47.5,47.3,29.80,WSW,248,8.0,8.0,99,0.01,,,0.19,meteohub,2013-01-08 22:25:00,
2013-01-08 14:30:00,52.2,51.8,29.80,SW,225,8.0,8.0,99,0.02,,,0.19,meteohub,2013-01-08 22:30:00,
2013-01-08 14:35:00,47.7,47.5,29.80,West,270,5.0,8.0,99,0.04,,,0.20,meteohub,2013-01-08 22:35:00,
2013-01-08 14:40:00,51.3,50.9,29.80,South,180,3.0,8.0,99,0.02,,,0.20,meteohub,2013-01-08 22:40:00,
2013-01-08 14:45:00,47.7,47.5,29.80,SW,225,4.0,8.0,99,0.02,,,0.20,meteohub,2013-01-08 22:45:00,
2013-01-08 14:50:00,53.8,53.4,29.80,South,180,4.0,7.0,99,0.04,,,0.21,meteohub,2013-01-08 22:50:00,
2013-01-08 14:55:00,47.7,47.5,29.80,SW,225,4.0,7.0,99,0.04,,,0.21,meteohub,2013-01-08 22:55:00,
2013-01-08 15:00:00,47.7,47.5,29.80,SW,225,6.0,6.0,99,0.05,,,0.22,meteohub,2013-01-08 23:00:00,
2013-01-08 15:05:00,47.8,47.7,29.80,South,180,5.0,8.0,99,0.05,,,0.22,meteohub,2013-01-08 23:05:00,
2013-01-08 15:10:00,47.8,47.7,29.80,SE,135,4.0,8.0,99,0.07,,,0.25,meteohub,2013-01-08 23:10:00,
2013-01-08 15:15:00,47.8,47.7,29.80,NE,45,2.0,7.0,99,0.08,,,0.26,meteohub,2013-01-08 23:15:00,
2013-01-08 15:20:00,48.0,47.8,29.80,WSW,248,3.0,6.0,99,0.08,,,0.26,meteohub,2013-01-08 23:20:00,
2013-01-08 15:25:00,48.0,47.8,29.80,SW,225,3.0,5.0,99,0.08,,,0.27,meteohub,2013-01-08 23:25:00,
2013-01-08 15:30:00,50.9,50.5,29.79,North,0,5.0,5.0,99,0.09,,,0.28,meteohub,2013-01-08 23:30:00,
2013-01-08 15:35:00,48.2,48.0,29.79,SW,225,4.0,6.0,99,0.08,,,0.28,meteohub,2013-01-08 23:35:00,
2013-01-08 15:40:00,51.3,50.9,29.79,SW,225,4.0,7.0,99,0.08,,,0.28,meteohub,2013-01-08 23:40:00,
2013-01-08 15:45:00,51.4,51.1,29.78,SW,225,5.0,7.0,99,0.07,,,0.28,meteohub,2013-01-08 23:45:00,
2013-01-08 15:50:00,48.4,48.2,29.77,SW,225,4.0,8.0,99,0.07,,,0.28,meteohub,2013-01-08 23:50:00,
2013-01-08 15:55:00,46.4,46.2,29.77,SW,225,7.0,8.0,99,0.06,,,0.28,meteohub,2013-01-08 23:55:00,
2013-01-08 16:00:00,48.7,48.6,29.76,West,270,4.0,8.0,99,0.07,,,0.30,meteohub,2013-01-09 00:00:00,
2013-01-08 16:05:00,48.6,48.4,29.76,SW,225,6.0,7.0,99,0.05,,,0.30,meteohub,2013-01-09 00:05:00,
2013-01-08 16:10:00,51.6,51.3,29.76,SW,225,11.0,11.0,99,0.05,,,0.30,meteohub,2013-01-09 00:10:00,
2013-01-08 16:15:00,48.4,48.2,29.76,WSW,248,6.0,11.0,99,0.04,,,0.30,meteohub,2013-01-09 00:15:00,
2013-01-08 16:20:00,48.6,48.4,29.75,East,90,7.0,11.0,99,0.02,,,0.30,meteohub,2013-01-09 00:20:00,
2013-01-08 16:25:00,51.3,50.9,29.75,West,270,5.0,11.0,99,0.02,,,0.30,meteohub,2013-01-09 00:25:00,
2013-01-08 16:30:00,49.3,49.1,29.76,West,270,4.0,11.0,99,0.01,,,0.30,meteohub,2013-01-09 00:30:00,
2013-01-08 16:35:00,48.9,48.7,29.76,South,180,5.0,8.0,99,0.01,,,0.30,meteohub,2013-01-09 00:35:00,
2013-01-08 16:41:00,48.6,48.4,29.75,SW,225,4.0,11.0,99,0.01,,,0.30,meteohub,2013-01-09 00:41:00,
2013-01-08 16:46:00,49.3,49.1,29.74,North,0,2.0,11.0,99,0.01,,,0.30,meteohub,2013-01-09 00:46:00,
2013-01-08 16:51:00,49.5,49.3,29.75,West,270,10.0,11.0,99,0.01,,,0.30,meteohub,2013-01-09 00:51:00,
2013-01-08 16:56:00,49.8,49.5,29.75,West,270,4.0,11.0,99,0.00,,,0.30,meteohub,2013-01-09 00:56:00,
2013-01-08 17:01:00,49.5,49.3,29.74,South,180,4.0,11.0,99,0.00,,,0.30,meteohub,2013-01-09 01:01:00,
2013-01-08 17:06:00,49.5,49.3,29.74,SW,225,6.0,10.0,99,0.00,,,0.30,meteohub,2013-01-09 01:06:00,
2013-01-08 17:11:00,49.6,49.5,29.74,North,0,5.0,9.0,99,0.00,,,0.30,meteohub,2013-01-09 01:11:00,
2013-01-08 17:16:00,51.4,51.1,29.74,West,270,2.0,11.0,99,0.01,,,0.31,meteohub,2013-01-09 01:16:00,
2013-01-08 17:21:00,50.4,50.0,29.74,South,180,4.0,11.0,99,0.02,,,0.32,meteohub,2013-01-09 01:21:00,
2013-01-08 17:26:00,53.1,52.7,29.73,South,180,2.0,11.0,99,0.02,,,0.32,meteohub,2013-01-09 01:26:00,
2013-01-08 17:31:00,50.9,50.5,29.74,SW,225,9.0,11.0,99,0.02,,,0.32,meteohub,2013-01-09 01:31:00,
2013-01-08 17:36:00,48.0,47.8,29.74,SSW,203,4.0,13.0,99,0.02,,,0.32,meteohub,2013-01-09 01:36:00,
2013-01-08 17:41:00,48.4,48.2,29.74,South,180,17.0,17.0,99,0.04,,,0.33,meteohub,2013-01-09 01:41:00,
2013-01-08 17:46:00,49.5,49.3,29.73,WSW,248,6.0,17.0,99,0.04,,,0.33,meteohub,2013-01-09 01:46:00,
2013-01-08 17:51:00,49.3,49.1,29.73,SW,225,14.0,17.0,99,0.04,,,0.33,meteohub,2013-01-09 01:51:00,
2013-01-08 17:56:00,51.3,50.9,29.73,West,270,4.0,17.0,99,0.05,,,0.34,meteohub,2013-01-09 01:56:00,
2013-01-08 18:01:00,52.5,52.2,29.73,SW,225,4.0,14.0,99,0.05,,,0.34,meteohub,2013-01-09 02:01:00,
2013-01-08 18:06:00,50.0,49.6,29.72,WSW,248,7.0,14.0,99,0.05,,,0.34,meteohub,2013-01-09 02:06:00,
2013-01-08 18:11:00,49.5,49.3,29.73,West,270,6.0,9.0,99,0.06,,,0.35,meteohub,2013-01-09 02:11:00,
2013-01-08 18:16:00,46.9,46.8,29.72,South,180,6.0,9.0,99,0.05,,,0.35,meteohub,2013-01-09 02:16:00,
2013-01-08 18:21:00,49.1,48.9,29.73,South,180,4.0,9.0,99,0.04,,,0.35,meteohub,2013-01-09 02:21:00,
2013-01-08 18:26:00,49.1,48.9,29.72,SW,225,4.0,11.0,99,0.05,,,0.37,meteohub,2013-01-09 02:26:00,
2013-01-08 18:31:00,49.1,48.9,29.72,South,180,8.0,11.0,99,0.05,,,0.37,meteohub,2013-01-09 02:31:00,
2013-01-08 18:36:00,49.1,48.9,29.71,SW,225,6.0,10.0,99,0.05,,,0.37,meteohub,2013-01-09 02:36:00,
2013-01-08 18:41:00,49.1,48.9,29.72,SSW,203,2.0,10.0,99,0.05,,,0.38,meteohub,2013-01-09 02:41:00,
2013-01-08 18:46:00,49.3,49.1,29.72,West,270,8.0,10.0,99,0.05,,,0.38,meteohub,2013-01-09 02:46:00,
2013-01-08 18:51:00,52.2,51.8,29.72,SW,225,8.0,10.0,99,0.05,,,0.38,meteohub,2013-01-09 02:51:00,
2013-01-08 18:56:00,49.3,49.1,29.71,SW,225,3.0,10.0,99,0.04,,,0.38,meteohub,2013-01-09 02:56:00,
2013-01-08 19:01:00,47.8,47.7,29.71,South,180,8.0,11.0,99,0.04,,,0.38,meteohub,2013-01-09 03:01:00,
2013-01-08 19:06:00,49.5,49.3,29.71,West,270,14.0,14.0,99,0.04,,,0.39,meteohub,2013-01-09 03:06:00,
2013-01-08 19:11:00,52.2,51.8,29.71,SW,225,4.0,14.0,99,0.04,,,0.39,meteohub,2013-01-09 03:11:00,
2013-01-08 19:16:00,49.3,49.1,29.71,SE,135,3.0,14.0,99,0.04,,,0.39,meteohub,2013-01-09 03:16:00,
2013-01-08 19:21:00,49.5,49.3,29.71,SW,225,2.0,14.0,99,0.02,,,0.39,meteohub,2013-01-09 03:21:00,
2013-01-08 19:26:00,49.5,49.3,29.71,North,0,2.0,11.0,99,0.02,,,0.39,meteohub,2013-01-09 03:26:00,
2013-01-08 19:31:00,51.4,51.1,29.71,West,270,4.0,11.0,99,0.02,,,0.39,meteohub,2013-01-09 03:31:00,
2013-01-08 19:36:00,53.2,52.9,29.71,East,90,3.0,9.0,99,0.02,,,0.39,meteohub,2013-01-09 03:36:00,
2013-01-08 19:41:00,49.6,49.5,29.71,SW,225,15.0,15.0,99,0.01,,,0.39,meteohub,2013-01-09 03:41:00,
2013-01-08 19:46:00,46.6,46.4,29.70,SW,225,5.0,15.0,99,0.01,,,0.39,meteohub,2013-01-09 03:46:00,
2013-01-08 19:51:00,49.6,49.5,29.70,West,270,2.0,15.0,99,0.01,,,0.39,meteohub,2013-01-09 03:51:00,
2013-01-08 19:56:00,49.6,49.5,29.70,SW,225,3.0,15.0,99,0.01,,,0.39,meteohub,2013-01-09 03:56:00,
2013-01-08 20:01:00,50.4,50.0,29.71,SE,135,4.0,8.0,99,0.01,,,0.39,meteohub,2013-01-09 04:01:00,
2013-01-08 20:09:00,54.3,54.0,29.71,South,180,10.0,11.0,99,0.00,,,0.39,meteohub,2013-01-09 04:09:00,
2013-01-08 20:14:00,49.8,49.5,29.71,SW,225,4.0,11.0,99,0.00,,,0.39,meteohub,2013-01-09 04:14:00,
2013-01-08 20:19:00,53.4,53.1,29.70,North,0,4.0,10.0,99,0.00,,,0.39,meteohub,2013-01-09 04:19:00,
2013-01-08 20:24:00,55.2,54.9,29.70,SSW,203,7.0,10.0,99,0.00,,,0.39,meteohub,2013-01-09 04:24:00,
2013-01-08 20:29:00,48.6,48.4,29.71,SW,225,8.0,8.0,99,0.00,,,0.39,meteohub,2013-01-09 04:29:00,
2013-01-08 20:34:00,49.8,49.5,29.70,SSW,203,6.0,16.0,99,0.01,,,0.40,meteohub,2013-01-09 04:34:00,
2013-01-08 20:39:00,53.1,52.7,29.70,SSW,203,2.0,16.0,99,0.01,,,0.40,meteohub,2013-01-09 04:39:00,
2013-01-08 20:44:00,49.6,49.5,29.70,South,180,9.0,16.0,99,0.01,,,0.40,meteohub,2013-01-09 04:44:00,
2013-01-08 20:49:00,49.8,49.5,29.70,SW,225,8.0,8.0,99,0.01,,,0.40,meteohub,2013-01-09 04:49:00,
2013-01-08 20:54:00,45.9,45.7,29.70,SW,225,2.0,9.0,99,0.01,,,0.40,meteohub,2013-01-09 04:54:00,
2013-01-08 20:59:00,49.8,49.5,29.69,SW,225,8.0,11.0,99,0.01,,,0.40,meteohub,2013-01-09 04:59:00,
2013-01-08 21:00:00,49.8,49.5,29.69,SW,225,8.0,11.0,99,0.01,,,0.40,meteohub,2013-01-09 05:00:00,
2013-01-08 21:01:00,49.8,49.5,29.69,SW,225,6.0,11.0,99,0.01,,,0.40,meteohub,2013-01-09 05:01:00,
2013-01-08 21:02:00,49.8,49.5,29.69,SW,225,2.0,11.0,99,0.01,,,0.40,meteohub,2013-01-09 05:02:00,
2013-01-08 21:03:00,50.0,49.6,29.69,North,0,3.0,11.0,99,0.01,,,0.40,meteohub,2013-01-09 05:03:00,
2013-01-08 21:08:00,49.8,49.5,29.69,SW,225,4.0,11.0,99,0.01,,,0.40,meteohub,2013-01-09 05:08:00,
2013-01-08 21:13:00,49.6,49.5,29.69,South,180,6.0,9.0,99,0.01,,,0.40,meteohub,2013-01-09 05:13:00,
2013-01-08 21:18:00,49.6,49.5,29.69,SW,225,3.0,9.0,99,0.01,,,0.40,meteohub,2013-01-09 05:18:00,
2013-01-08 21:23:00,50.4,50.0,29.69,West,270,3.0,9.0,99,0.01,,,0.40,meteohub,2013-01-09 05:23:00,
2013-01-08 21:28:00,49.5,49.3,29.69,NNE,23,3.0,11.0,99,0.01,,,0.40,meteohub,2013-01-09 05:28:00,
2013-01-08 21:33:00,53.6,53.2,29.68,SSE,158,11.0,11.0,99,0.00,,,0.40,meteohub,2013-01-09 05:33:00,
2013-01-08 21:43:00,52.5,52.2,29.68,West,270,8.0,12.0,99,0.01,,,0.41,meteohub,2013-01-09 05:43:00,
2013-01-08 21:48:00,51.3,50.9,29.68,North,0,11.0,15.0,99,0.01,,,0.41,meteohub,2013-01-09 05:48:00,
2013-01-08 21:53:00,52.2,51.8,29.69,SW,225,14.0,15.0,99,0.01,,,0.41,meteohub,2013-01-09 05:53:00,
2013-01-08 21:58:00,49.5,49.3,29.69,SW,225,3.0,14.0,99,0.02,,,0.43,meteohub,2013-01-09 05:58:00,
2013-01-08 22:03:00,45.1,45.0,29.68,South,180,5.0,14.0,99,0.02,,,0.43,meteohub,2013-01-09 06:03:00,
2013-01-08 22:08:00,49.3,49.1,29.69,SW,225,7.0,15.0,99,0.02,,,0.43,meteohub,2013-01-09 06:08:00,
2013-01-08 22:13:00,52.5,52.2,29.69,SW,225,4.0,15.0,99,0.04,,,0.44,meteohub,2013-01-09 06:13:00,
2013-01-08 22:18:00,49.1,48.9,29.69,SSW,203,5.0,15.0,99,0.04,,,0.44,meteohub,2013-01-09 06:18:00,
2013-01-08 22:23:00,49.3,49.1,29.69,NE,45,7.0,14.0,99,0.05,,,0.45,meteohub,2013-01-09 06:23:00,
2013-01-08 22:28:00,52.9,52.5,29.68,SW,225,8.0,14.0,99,0.05,,,0.45,meteohub,2013-01-09 06:28:00,
2013-01-08 22:33:00,49.6,49.5,29.68,North,0,9.0,14.0,99,0.05,,,0.46,meteohub,2013-01-09 06:33:00,
2013-01-08 22:38:00,49.1,48.9,29.68,North,0,2.0,14.0,99,0.05,,,0.46,meteohub,2013-01-09 06:38:00,
2013-01-08 22:43:00,49.1,48.9,29.68,South,180,4.0,11.0,99,0.05,,,0.46,meteohub,2013-01-09 06:43:00,
2013-01-08 22:48:00,49.1,48.9,29.68,West,270,3.0,13.0,99,0.05,,,0.46,meteohub,2013-01-09 06:48:00,
2013-01-08 22:53:00,48.7,48.6,29.68,South,180,2.0,13.0,99,0.06,,,0.47,meteohub,2013-01-09 06:53:00,
2013-01-08 23:02:00,50.7,50.4,29.68,West,270,5.0,10.0,99,0.06,,,0.48,meteohub,2013-01-09 07:02:00,
2013-01-08 23:07:00,49.1,48.9,29.68,WNW,293,17.0,17.0,99,0.06,,,0.48,meteohub,2013-01-09 07:07:00,
2013-01-08 23:12:00,51.8,51.4,29.68,West,270,8.0,17.0,99,0.05,,,0.48,meteohub,2013-01-09 07:12:00,
2013-01-08 23:27:00,48.6,48.4,29.68,South,180,4.0,8.0,99,0.06,,,0.51,meteohub,2013-01-09 07:27:00,